Temperature
5 6 6 6 6 7 6 6 6 8 8 8 8 8 9 9 8 8 8 7 7 6 6 6 6 6 6 6 6 6 6 6 6 6 6 5 5 5 5 5 5 5 5 5
4 5 6 6 6 7 7 7 7 8 8 9 8 8 8 8 8 7 7 7 7 6 6 6 6 6 6 5 5 5 5 5 5 5 5 5 5 5 5 5 5 4 4 4
3 4 4 4 5 6 6 7 7 7 7 7 7 7 7 7 7 6 6 6 6 6 6 5 5 5 5 5 5 5 5 5 5 5 5 5 5 4 4 4 4 4 4 4
2 3 3 5 6 6 6 6 7 7 7 6 6 7 7 6 6 6 5 5 5 5 5 5 5 5 5 5 4 4 4 4 4 4 4 4 4 4 4 4 4 3 3 3
2 3 3 5 5 5 5 5 5 6 6 5 5 5 5 5 5 5 5 4 4 4 4 4 4 4 4 4 4 4 4 4 4 4 3 3 3 3 3 3 3 3 3 3
2 2 3 4 4 5 5 4 4 5 4 4 4 3 3 4 4 4 4 4 3 4 4 4 4 4 4 3 3 3 3 3 3 3 3 3 3 3 2 2 2 2 2 2
1 2 3 3 3 4 3 3 3 4 4 3 3 3 3 2 2 2 2 2 2 3 3 3 3 3 3 3 3 3 2 2 2 2 2 2 2 2 2 2 2 2 2 1
1 1 1 2 2 2 2 2 3 3 3 2 2 2 1 1 1 1 1 1 1 2 2 2 2 2 2 2 2 2 2 2 2 2 2 2 2 2 1 1 1 1 1 1
1 1 1 1 1 1 1 1 1 1 1 1 1 0 -0 -0 -0 0 0 1 1 1 1 1 1 1 1 1 1 1 1 2 1 1 1 1 1 1 1 1 0 0 0 -0
0 0 0 0 0 0 1 1 1 0 0 0 -0 -1 -1 -1 -1 -1 -1 -0 -0 0 0 0 0 0 1 0 0 1 1 1 1 1 1 0 0 0 0 -0 -0 -0 -1 -1
-0 -0 -0 -0 -0 -0 -0 -0 -0 -0 -1 -1 -1 -1 -2 -2 -2 -2 -1 -1 -1 -1 -1 -1 -1 -1 -0 -0 0 0 0 0 0 0 -0 -0 -0 -0 -1 -1 -1 -1 -1 -1
-1 -1 -1 -1 -1 -1 -1 -1 -1 -1 -2 -2 -2 -2 -2 -2 -2 -2 -2 -1 -1 -1 -1 -1 -1 -1 -1 -1 -1 -1 -0 -0 -1 -1 -1 -1 -1 -1 -1 -2 -2 -2 -2 -2
-1 -1 -1 -2 -2 -1 -2 -2 -2 -2 -2 -2 -2 -2 -2 -2 -2 -2 -2 -2 -2 -2 -2 -2 -2 -2 -1 -2 -2 -1 -1 -1 -1 -2 -2 -2 -2 -2 -2 -2 -2 -2 -2 -2
-2 -2 -2 -2 -2 -2 -2 -3 -2 -3 -3 -3 -3 -3 -2 -2 -2 -2 -2 -2 -2 -2 -2 -2 -2 -2 -2 -2 -2 -2 -2 -2 -2 -2 -2 -2 -2 -2 -3 -3 -3 -3 -3 -3
-3 -3 -3 -3 -3 -3 -3 -3 -3 -3 -3 -3 -3 -3 -3 -3 -3 -3 -3 -2 -2 -2 -2 -2 -2 -2 -2 -2 -2 -2 -3 -3 -3 -3 -3 -3 -3 -3 -3 -3 -3 -3 -3 -3
-3 -3 -3 -3 -3 -3 -3 -3 -3 -4 -3 -3 -3 -3 -3 -3 -3 -3 -3 -3 -3 -3 -3 -3 -3 -3 -3 -3 -3 -3 -3 -3 -3 -3 -3 -3 -3 -4 -4 -4 -4 -4 -4 -4
-4 -4 -4 -4 -4 -4 -4 -4 -4 -4 -4 -4 -4 -4 -4 -4 -3 -3 -3 -3 -3 -4 -3 -3 -3 -3 -3 -3 -3 -3 -4 -4 -4 -4 -4 -4 -4 -4 -4 -4 -4 -4 -4 -4
-4 -4 -4 -4 -4 -4 -4 -4 -4 -4 -4 -4 -4 -4 -4 -4 -4 -4 -4 -4 -4 -4 -4 -4 -4 -4 -4 -4 -4 -4 -4 -4 -4 -4 -4 -4 -4 -5 -5 -5 -5 -5 -5 -5
-5 -5 -5 -5 -5 -5 -5 -5 -4 -4 -4 -4 -4 -4 -5 -5 -5 -5 -5 -4 -4 -4 -4 -5 -5 -5 -5 -5 -5 -5 -5 -5 -5 -5 -5 -5 -5 -5 -5 -5 -5 -5 -5 -5
-5 -5 -5 -5 -5 -5 -5 -5 -5 -5 -5 -5 -5 -5 -5 -5 -5 -5 -5 -5 -5 -5 -5 -5 -5 -5 -5 -5 -5 -5 -5 -5 -5 -5 -5 -5 -5 -5 -5 -5 -6 -6 -6 -6
-6 -6 -6 -6 -5 -5 -5 -5 -5 -5 -5 -5 -5 -6 -6 -6 -6 -6 -6 -6 -6 -6 -6 -6 -6 -6 -6 -6 -6 -6 -6 -6 -6 -6 -6 -6 -6 -6 -6 -6 -6 -6 -6 -6
-6 -6 -6 -6 -6 -6 -6 -6 -6 -6 -6 -6 -6 -6 -6 -6 -6 -6 -6 -6 -6 -6 -6 -6 -6 -6 -6 -6 -6 -6 -6 -6 -6 -6 -6 -6 -6 -6 -6 -6 -6 -6 -6 -6
-7 -7 -7 -7 -7 -7 -6 -6 -6 -6 -6 -6 -6 -6 -6 -7 -7 -7 -7 -7 -7 -7 -7 -7 -7 -7 -7 -7 -7 -7 -7 -7 -7 -7 -7 -7 -7 -7 -7 -7 -7 -7 -7 -7
-7 -7 -7 -7 -7 -7 -7 -7 -7 -7 -7 -7 -7 -7 -7 -7 -7 -7 -7 -7 -7 -7 -7 -7 -7 -7 -7 -7 -7 -7 -7 -7 -7 -7 -7 -7 -7 -7 -7 -7 -7 -7 -7 -7
-8 -8 -8 -8 -8 -8 -8 -8 -8 -8 -8 -8 -8 -8 -8 -8 -8 -8 -8 -8 -8 -8 -8 -7 -7 -7 -7 -7 -7 -7 -7 -7 -8 -8 -8 -8 -8 -8 -7 -7 -7 -7 -7 -7
-8 -8 -9 -9 -9 -9 -9 -9 -9 -8 -8 -8 -8 -8 -8 -8 -8 -8 -8 -8 -8 -8 -8 -8 -8 -8 -8 -8 -8 -8 -8 -8 -8 -8 -8 -8 -8 -8 -8 -8 -8 -8 -8 -8
-9 -9 -9 -9 -9 -9 -9 -9 -9 -9 -9 -9 -9 -9 -9 -9 -9 -9 -8 -8 -8 -8 -8 -8 -8 -8 -8 -8 -8 -8 -8 -8 -8 -8 -8 -8 -8 -8 -8 -8 -8 -8 -8 -8
Wind_Speed
11 10 8 9 11 12 12 11 8 8 7 6 4 2 2 3 4 5 5 5 5 4 4 4 5 5 5 5 5 6 6 6 5 5 5 4 4 4 4 4 4 4 4 4
9 10 9 10 12 15 15 14 12 10 9 2 2 1 1 2 3 4 4 4 4 4 4 4 5 5 5 5 5 5 6 5 5 5 5 4 4 4 4 4 4 4 4 4
6 6 6 9 10 12 11 10 9 11 7 2 2 3 3 3 4 3 3 3 4 4 4 3 4 5 5 5 5 5 5 5 5 5 4 4 4 4 4 4 4 3 3 4
4 4 8 5 2 5 8 7 7 5 3 3 2 1 1 3 3 3 2 2 2 3 2 3 3 4 5 5 5 5 5 5 5 5 4 4 4 4 4 3 3 3 4 4
4 5 7 3 2 2 4 5 3 3 1 1 2 2 2 4 3 3 3 3 2 2 2 3 3 4 5 5 4 4 4 4 4 4 4 4 4 4 3 3 3 3 3 4
4 4 5 2 4 4 1 4 2 1 2 2 3 2 1 3 4 4 4 4 3 3 3 3 3 4 5 4 4 4 4 3 3 3 4 4 4 3 2 3 3 3 3 4
5 4 3 4 6 3 2 3 4 1 2 2 1 1 3 4 4 4 5 5 4 4 4 3 3 4 4 4 3 3 3 3 3 3 3 3 3 3 2 2 2 2 3 3
2 3 3 6 4 2 2 4 4 4 3 4 6 6 6 5 4 5 5 5 5 4 4 4 4 4 4 3 2 3 3 3 2 2 2 2 3 2 2 2 2 2 3 3
1 1 3 4 4 5 5 4 5 5 6 7 7 7 6 6 5 5 5 5 4 4 4 4 4 4 3 2 2 2 3 2 1 1 1 2 2 2 2 2 2 3 3 4
1 2 4 5 6 6 6 6 7 7 7 7 7 7 7 6 5 5 5 5 5 5 4 4 3 3 2 2 2 2 2 1 1 1 1 1 1 2 2 3 3 3 4 4
1 2 4 6 7 6 7 7 8 8 7 7 7 7 6 5 5 5 5 5 5 4 4 3 3 3 2 2 2 2 1 1 1 0 1 1 1 1 2 3 4 4 4 4
2 3 3 4 6 7 7 7 6 7 7 6 6 6 5 5 4 4 4 4 4 4 4 4 3 3 3 2 2 1 1 1 0 0 1 1 1 2 3 3 6 7 7 7
3 4 5 5 7 8 7 7 7 7 6 6 6 6 5 5 4 4 4 4 4 3 3 3 3 3 3 2 2 1 1 1 1 1 1 1 1 2 3 4 5 6 7 8
5 5 5 5 6 7 7 7 7 8 7 6 5 5 5 4 4 4 3 3 3 3 3 2 2 2 2 2 2 2 1 2 2 2 2 2 2 2 2 3 4 4 5 7
7 6 4 5 6 6 6 7 7 7 6 6 6 5 5 4 4 4 3 3 3 3 3 3 3 3 3 3 2 2 2 2 2 2 2 2 2 2 3 3 4 4 4 4
5 5 5 6 6 6 6 7 6 6 5 5 5 5 4 4 3 3 3 3 3 3 3 3 3 3 3 3 3 2 2 4 3 2 2 2 2 3 3 3 4 4 4 4
4 4 4 5 5 5 5 5 4 4 4 5 5 4 4 4 4 4 3 3 2 2 2 2 3 3 3 3 3 2 3 3 4 3 3 3 3 3 3 4 4 4 5 5
4 3 3 3 3 3 4 4 4 4 4 3 4 4 4 4 4 4 4 4 3 4 3 2 2 3 3 3 3 3 3 3 3 3 3 3 4 3 3 4 5 5 5 5
5 4 4 4 3 3 3 3 3 3 3 3 3 3 3 3 3 4 4 4 4 4 4 3 5 3 3 4 4 2 3 3 4 3 3 5 5 4 4 4 5 5 5 5
5 4 4 4 4 3 3 3 3 3 3 3 3 3 4 4 4 4 3 3 3 3 4 4 4 3 4 4 4 3 3 4 4 4 4 4 4 4 4 5 5 5 5 5
6 5 5 4 4 4 3 3 3 3 4 3 3 4 4 5 4 4 3 4 4 3 4 5 3 3 4 4 5 3 3 4 4 4 4 4 4 5 5 5 5 5 6 5
5 5 5 4 4 4 4 4 3 3 4 4 4 4 4 5 4 4 3 3 4 6 4 3 3 5 6 6 3 3 4 4 4 4 4 4 4 5 5 5 5 6 6 6
5 4 5 5 5 5 5 4 4 3 4 4 4 4 4 4 3 3 4 3 3 6 5 3 6 9 9 5 3 4 4 4 4 4 4 4 4 5 5 6 5 6 5 5
5 5 5 5 5 5 5 5 4 3 4 4 4 4 4 4 4 3 3 6 7 8 4 6 9 10 8 3 3 4 4 4 4 4 4 4 4 5 5 5 5 5 5 6
5 5 5 5 5 4 4 5 4 4 4 4 4 4 3 2 3 4 4 4 7 7 5 7 9 9 5 4 4 4 4 4 4 4 4 4 4 5 5 5 5 5 5 5
5 5 4 4 4 4 4 4 4 4 4 4 4 4 3 3 4 4 4 4 5 7 5 4 5 6 4 4 4 4 4 5 5 5 4 4 5 5 4 5 5 5 5 5
5 4 4 4 4 3 3 3 4 5 4 4 5 5 4 4 4 4 4 4 4 4 4 4 4 4 4 4 4 4 4 4 4 4 4 4 4 4 4 5 5 5 5 5
Wind_Direction
269 278 261 247 234 224 223 226 232 253 254 235 219 189 155 138 134 133 132 131 137 145 146 146 140 137 135 136 137 137 141 146 152 148 145 146 152 161 169 172 175 181 183 187
270 271 267 258 242 231 231 232 241 257 267 266 156 126 129 143 150 145 141 143 142 140 139 144 146 141 138 141 141 141 146 151 147 145 145 152 159 164 170 174 175 177 190 192
266 281 288 259 242 229 227 227 227 240 247 189 177 190 197 180 158 146 134 144 147 145 142 143 148 144 143 145 140 144 148 147 147 148 154 163 165 168 180 183 178 185 196 198
261 263 242 246 273 241 232 234 229 234 210 183 184 185 140 130 129 129 125 118 116 122 118 121 128 128 127 131 138 145 147 149 151 153 161 167 167 177 188 184 184 191 201 204
235 247 264 268 297 260 227 248 251 236 236 73 86 69 47 60 79 94 90 91 91 98 110 114 119 125 121 124 129 135 142 146 152 157 163 168 174 184 188 183 191 198 203 206
229 237 250 299 332 327 240 250 315 215 155 122 109 169 200 57 63 74 74 75 74 80 92 97 102 113 117 121 128 141 141 139 147 158 168 178 182 186 186 185 192 201 214 218
243 246 270 349 334 353 162 273 340 23 139 158 252 167 126 91 70 74 77 71 66 74 82 84 87 101 109 115 130 135 128 134 150 164 175 182 178 176 175 182 193 213 228 238
235 248 276 358 12 18 340 354 17 49 70 79 84 95 94 87 78 71 71 70 66 73 70 64 78 97 101 106 108 109 123 136 152 168 175 166 166 170 176 180 199 224 235 251
224 256 6 15 15 1 7 24 35 53 72 84 91 91 85 76 68 66 68 66 66 76 69 58 66 88 100 100 101 107 116 127 145 155 165 169 172 178 189 198 208 230 234 244
355 25 20 25 27 27 34 45 48 58 71 85 88 87 81 74 65 58 60 67 67 67 68 59 56 69 87 87 90 100 110 119 135 143 164 175 194 197 203 215 221 233 238 248
339 2 23 27 25 31 42 48 53 56 63 76 84 81 79 74 67 61 60 63 63 65 66 58 51 50 55 57 75 83 95 100 80 101 204 222 245 243 240 241 234 242 242 242
3 6 19 11 16 30 47 50 56 69 64 58 73 80 73 67 63 63 59 56 54 50 51 47 43 40 39 40 59 73 64 46 21 321 273 255 266 310 308 275 274 269 265 263
16 25 43 37 34 40 49 51 56 61 65 62 59 67 68 63 51 50 51 50 51 46 43 39 34 30 24 22 42 48 12 309 292 286 278 268 262 262 295 312 301 290 279 272
35 43 43 37 42 42 48 52 57 56 53 56 59 60 61 57 46 40 36 34 38 36 31 33 32 16 11 21 28 11 344 310 294 275 270 269 268 267 268 279 297 304 297 284
31 45 54 46 49 48 48 51 54 50 46 44 46 49 49 47 36 25 24 31 36 27 19 26 25 4 7 14 10 347 326 306 296 287 281 276 274 272 272 270 275 285 295 296
27 41 43 43 40 40 40 41 42 36 33 34 34 31 31 31 21 12 13 22 29 12 360 4 356 347 356 357 345 335 321 310 308 299 292 288 284 280 279 277 277 279 280 283
36 30 28 26 23 25 28 30 33 28 23 22 17 13 13 11 6 2 360 4 7 348 340 342 329 333 342 340 330 319 313 311 311 305 294 288 284 281 281 279 278 280 280 279
28 19 16 19 17 16 14 16 19 15 11 4 4 5 1 353 343 336 337 341 345 343 341 331 328 339 337 328 320 309 305 300 295 289 291 293 291 285 285 284 282 282 287 286
28 24 20 17 14 10 358 352 350 349 351 355 355 346 336 332 328 325 332 341 336 326 324 334 341 342 323 316 318 302 300 297 295 292 292 296 298 291 285 283 283 285 287 290
16 14 14 8 6 0 343 337 339 341 340 343 340 333 328 325 325 323 323 314 300 292 307 322 325 314 307 306 312 295 291 289 289 290 290 287 287 289 289 287 287 290 292 292
2 1 359 356 351 348 339 332 331 326 327 330 322 311 308 311 314 314 310 304 307 317 321 321 317 304 306 309 312 300 294 291 289 286 285 284 285 288 291 293 295 296 295 294
346 345 341 337 335 332 331 330 323 315 316 317 314 310 309 309 310 303 284 278 299 318 322 306 301 308 313 312 301 297 293 291 289 287 285 286 288 290 292 294 294 294 292 290
329 326 326 327 324 319 321 321 313 310 309 309 309 306 302 299 298 301 303 306 313 319 320 302 311 316 317 315 299 295 293 291 289 287 286 286 285 286 286 287 288 289 290 291
323 324 322 320 322 319 315 315 318 315 304 299 296 296 298 304 306 296 294 313 320 318 314 312 318 319 322 316 302 298 295 293 290 288 288 287 285 283 283 284 287 289 289 290
316 315 314 319 320 315 313 319 321 320 317 313 311 308 297 285 290 302 305 306 313 317 314 315 318 322 325 310 305 300 296 292 292 294 289 289 287 286 286 288 290 292 290 289
311 310 307 307 307 308 313 316 316 317 320 318 318 319 316 310 301 301 301 301 303 311 311 303 306 311 311 307 304 303 302 304 306 303 297 294 293 294 293 294 293 292 291 290
310 308 310 313 316 315 313 311 308 310 312 310 310 312 314 312 309 307 305 304 305 304 301 300 300 300 302 304 304 303 303 301 297 295 295 295 295 294 294 294 294 294 294 293
Height
1429 1426 1427 1426 1425 1426 1429 1430 1432 1423 1421 1420 1420 1422 1423 1425 1427 1430 1432 1434 1436 1438 1440 1442 1444 1445 1448 1450 1453 1455 1457 1460 1462 1465 1467 1470 1472 1474 1476 1477 1479 1481 1482 1483
1430 1424 1423 1423 1421 1421 1421 1422 1421 1420 1419 1417 1419 1421 1423 1425 1427 1429 1431 1433 1435 1437 1439 1440 1442 1443 1446 1448 1450 1453 1455 1458 1460 1462 1465 1466 1468 1470 1472 1473 1475 1476 1478 1479
1431 1425 1423 1423 1416 1416 1415 1414 1417 1419 1418 1418 1420 1421 1422 1424 1426 1428 1430 1432 1434 1435 1437 1438 1440 1442 1444 1446 1449 1451 1453 1455 1458 1460 1461 1463 1465 1466 1468 1469 1471 1472 1474 1475
1431 1429 1429 1415 1410 1410 1410 1411 1412 1413 1414 1415 1417 1419 1422 1424 1425 1427 1429 1431 1432 1433 1435 1436 1438 1440 1442 1444 1446 1448 1451 1453 1455 1456 1458 1460 1461 1463 1464 1465 1467 1468 1469 1470
1429 1426 1418 1412 1410 1410 1411 1411 1411 1412 1413 1415 1417 1419 1422 1423 1425 1426 1427 1429 1430 1431 1433 1434 1436 1438 1440 1442 1444 1446 1448 1450 1452 1453 1455 1456 1457 1459 1460 1462 1463 1464 1465 1466
1426 1424 1420 1414 1411 1408 1410 1412 1410 1410 1412 1414 1415 1421 1423 1424 1424 1425 1426 1427 1428 1429 1431 1432 1434 1436 1438 1440 1442 1444 1445 1447 1449 1451 1452 1453 1454 1455 1457 1458 1459 1460 1461 1462
1425 1423 1418 1417 1413 1410 1416 1415 1411 1410 1411 1413 1414 1417 1421 1423 1424 1424 1425 1426 1427 1428 1429 1431 1433 1434 1436 1438 1440 1442 1443 1445 1447 1448 1449 1450 1451 1452 1453 1454 1454 1455 1456 1457
1424 1425 1425 1419 1416 1417 1417 1414 1412 1410 1412 1413 1415 1417 1419 1422 1423 1424 1424 1426 1427 1427 1429 1430 1432 1434 1435 1437 1438 1440 1441 1442 1444 1445 1446 1447 1448 1448 1449 1450 1450 1451 1451 1452
1425 1427 1425 1422 1420 1419 1417 1415 1414 1413 1414 1415 1417 1418 1420 1422 1423 1424 1425 1425 1427 1427 1428 1430 1431 1433 1434 1436 1437 1438 1439 1440 1441 1442 1443 1444 1444 1445 1445 1446 1446 1446 1446 1447
1425 1425 1424 1423 1421 1420 1419 1418 1417 1416 1417 1418 1419 1420 1422 1423 1424 1425 1425 1426 1427 1428 1428 1430 1431 1432 1433 1434 1435 1436 1437 1438 1438 1439 1440 1441 1441 1441 1442 1442 1442 1442 1442 1442
1427 1426 1425 1424 1424 1422 1421 1420 1419 1419 1420 1420 1421 1422 1423 1424 1425 1426 1426 1427 1428 1428 1428 1429 1430 1431 1432 1433 1434 1434 1435 1435 1436 1437 1437 1437 1438 1438 1438 1438 1439 1439 1438 1438
1430 1429 1429 1428 1426 1424 1423 1422 1422 1422 1423 1424 1423 1424 1425 1426 1427 1427 1428 1428 1429 1429 1429 1430 1430 1431 1431 1432 1432 1432 1432 1433 1433 1434 1434 1434 1434 1434 1434 1435 1435 1434 1434 1434
1431 1430 1430 1429 1428 1427 1425 1425 1425 1424 1425 1425 1426 1426 1426 1427 1428 1428 1429 1429 1429 1429 1429 1429 1429 1430 1430 1430 1431 1431 1430 1430 1431 1431 1431 1431 1431 1430 1430 1430 1430 1429 1429 1429
1432 1431 1431 1431 1431 1430 1429 1428 1427 1427 1427 1427 1427 1428 1428 1428 1428 1429 1429 1429 1429 1429 1429 1429 1429 1429 1429 1429 1429 1428 1428 1428 1428 1428 1428 1428 1427 1427 1426 1425 1424 1423 1424 1424
1434 1433 1434 1433 1433 1432 1431 1431 1430 1429 1429 1429 1429 1429 1429 1429 1429 1429 1429 1429 1429 1428 1428 1428 1428 1427 1427 1427 1426 1426 1426 1425 1425 1425 1425 1424 1424 1423 1422 1422 1421 1420 1419 1419
1436 1435 1435 1435 1434 1434 1433 1433 1432 1431 1431 1431 1430 1430 1430 1429 1429 1429 1428 1428 1428 1427 1427 1427 1426 1426 1426 1425 1424 1423 1423 1423 1422 1422 1421 1420 1420 1419 1418 1418 1417 1416 1415 1414
1437 1437 1436 1436 1436 1435 1435 1434 1434 1433 1432 1432 1431 1430 1430 1429 1428 1428 1427 1427 1426 1426 1425 1425 1425 1424 1423 1423 1422 1421 1420 1420 1419 1418 1417 1417 1416 1415 1415 1414 1413 1412 1411 1410
1438 1438 1438 1437 1437 1436 1436 1435 1435 1434 1433 1432 1431 1431 1430 1429 1428 1427 1426 1426 1425 1424 1424 1423 1422 1422 1421 1420 1419 1418 1417 1417 1416 1415 1414 1413 1412 1412 1411 1410 1409 1408 1407 1406
1439 1438 1438 1437 1437 1436 1436 1435 1435 1434 1433 1432 1431 1430 1429 1428 1427 1426 1425 1423 1422 1421 1421 1420 1420 1419 1418 1417 1416 1415 1414 1413 1413 1412 1411 1410 1409 1408 1407 1406 1405 1404 1403 1401
1439 1438 1438 1437 1437 1436 1435 1434 1433 1432 1431 1430 1429 1428 1427 1426 1425 1424 1422 1421 1421 1420 1419 1418 1417 1416 1415 1414 1413 1412 1411 1410 1409 1408 1407 1406 1405 1404 1403 1402 1401 1400 1399 1397
1439 1438 1437 1436 1435 1435 1434 1433 1432 1431 1430 1429 1428 1426 1425 1424 1423 1421 1420 1419 1418 1417 1416 1415 1414 1413 1411 1410 1409 1408 1407 1406 1406 1405 1404 1403 1402 1401 1399 1398 1397 1396 1394 1393
1438 1437 1436 1435 1434 1433 1432 1431 1430 1429 1428 1426 1425 1424 1422 1421 1420 1419 1417 1417 1415 1414 1413 1412 1410 1409 1408 1407 1406 1405 1404 1403 1402 1401 1400 1399 1398 1397 1395 1394 1393 1392 1390 1389
1437 1436 1434 1433 1432 1430 1429 1428 1427 1426 1425 1424 1422 1421 1420 1418 1417 1416 1414 1414 1412 1411 1410 1408 1407 1406 1405 1403 1402 1401 1400 1399 1398 1397 1396 1395 1394 1393 1392 1390 1389 1388 1386 1385
1436 1434 1432 1431 1429 1428 1426 1425 1424 1423 1422 1421 1419 1418 1417 1415 1414 1413 1412 1410 1409 1408 1406 1405 1404 1403 1401 1400 1399 1398 1397 1395 1394 1393 1392 1391 1390 1389 1388 1387 1385 1384 1382 1381
1433 1432 1430 1428 1427 1425 1424 1423 1421 1420 1419 1418 1416 1415 1414 1413 1411 1410 1408 1407 1406 1404 1403 1402 1401 1400 1398 1397 1396 1394 1393 1392 1391 1390 1389 1387 1386 1385 1384 1383 1381 1380 1378 1377
1431 1429 1428 1426 1425 1423 1422 1420 1418 1417 1416 1414 1413 1412 1411 1409 1408 1407 1405 1404 1403 1401 1400 1399 1398 1396 1395 1394 1392 1391 1390 1389 1387 1386 1385 1384 1383 1382 1381 1379 1378 1377 1375 1373
1428 1427 1425 1423 1422 1421 1419 1417 1416 1414 1413 1411 1410 1409 1407 1406 1405 1403 1402 1401 1399 1398 1397 1396 1394 1393 1392 1390 1389 1388 1387 1385 1384 1383 1382 1381 1380 1378 1377 1376 1375 1373 1372 1370